Total_Precipitation_Accumulation
0.03 0.04 0.08 0.06 0.05 0.03 0.00 0.01 0.03 0.06 0.07 0.08 0.09 0.12 0.12 0.10 0.22 0.43 0.41 0.28 0.33 0.37 0.10 0.03 0.08 0.18 0.27 0.45 0.62 0.51 0.61 0.55 0.56 0.37 0.21 0.16 0.09 0.02 0.03 0.00 0.01 0.12 0.35 0.37 0.32 0.36 0.14 0.00 0.01 0.03 0.02 0.01 0.02 0.04
0.06 0.05 0.05 0.06 0.04 0.03 0.01 0.01 0.01 0.02 0.03 0.05 0.09 0.10 0.11 0.12 0.16 0.17 0.25 0.18 0.45 0.79 0.31 0.03 0.01 0.04 0.15 0.21 0.29 0.69 0.87 0.62 0.69 0.62 0.37 0.15 0.10 0.12 0.09 0.06 0.04 0.04 0.04 0.09 0.29 0.28 0.06 0.02 0.05 0.06 0.09 0.17 0.21 0.16
0.05 0.07 0.06 0.03 0.03 0.03 0.01 0.02 0.01 0.01 0.03 0.06 0.07 0.08 0.18 0.22 0.19 0.16 0.26 0.33 0.61 0.74 0.37 0.05 0.01 0.00 0.00 0.01 0.04 0.24 0.18 0.26 0.31 0.35 0.46 0.45 0.28 0.08 0.04 0.03 0.07 0.05 0.03 0.05 0.06 0.01 0.01 0.03 0.03 0.02 0.04 0.09 0.13 0.16
0.02 0.02 0.03 0.04 0.03 0.04 0.05 0.05 0.04 0.04 0.04 0.07 0.10 0.14 0.19 0.28 0.37 0.35 0.28 0.44 0.50 0.53 0.23 0.02 0.00 0.00 0.00 0.00 0.00 0.01 0.01 0.04 0.10 0.13 0.28 0.35 0.29 0.20 0.15 0.10 0.08 0.05 0.07 0.13 0.10 0.05 0.02 0.02 0.05 0.09 0.07 0.06 0.09 0.21
0.02 0.02 0.03 0.05 0.06 0.06 0.05 0.07 0.08 0.06 0.07 0.07 0.08 0.11 0.16 0.24 0.33 0.41 0.34 0.27 0.11 0.17 0.19 0.24 0.06 0.02 0.01 0.00 0.01 0.00 0.01 0.03 0.08 0.18 0.33 0.25 0.22 0.28 0.16 0.13 0.05 0.03 0.04 0.06 0.05 0.04 0.08 0.13 0.14 0.12 0.17 0.10 0.04 0.05
0.04 0.02 0.02 0.03 0.04 0.07 0.10 0.11 0.13 0.14 0.13 0.12 0.12 0.10 0.11 0.20 0.38 1.10 1.25 0.60 0.21 0.07 0.25 0.25 0.15 0.07 0.03 0.02 0.02 0.02 0.03 0.06 0.09 0.14 0.18 0.20 0.20 0.38 0.32 0.13 0.02 0.01 0.01 0.02 0.03 0.03 0.06 0.14 0.24 0.22 0.08 0.04 0.04 0.02
0.04 0.03 0.02 0.02 0.05 0.09 0.13 0.15 0.17 0.20 0.19 0.15 0.14 0.19 0.20 0.25 0.58 1.04 0.50 0.21 0.09 0.17 0.48 0.24 0.09 0.08 0.05 0.06 0.06 0.09 0.11 0.14 0.15 0.17 0.13 0.08 0.14 0.43 0.33 0.07 0.02 0.04 0.02 0.06 0.07 0.04 0.06 0.06 0.07 0.07 0.04 0.02 0.01 0.01
0.04 0.03 0.03 0.08 0.12 0.11 0.16 0.23 0.24 0.32 0.40 0.38 0.30 0.26 0.31 0.49 0.76 0.52 0.09 0.04 0.13 0.35 0.36 0.24 0.14 0.29 0.17 0.14 0.12 0.12 0.18 0.23 0.24 0.17 0.09 0.07 0.05 0.16 0.09 0.00 0.00 0.00 0.00 0.01 0.15 0.09 0.05 0.07 0.08 0.04 0.01 0.00 0.01 0.00
0.04 0.04 0.06 0.10 0.09 0.06 0.08 0.18 0.26 0.37 0.47 0.63 0.67 0.91 1.32 1.59 1.22 0.34 0.09 0.16 0.35 0.62 0.48 0.21 0.08 0.21 0.12 0.13 0.15 0.18 0.29 0.24 0.16 0.15 0.05 0.10 0.09 0.08 0.00 0.00 0.00 0.00 0.00 0.00 0.02 0.08 0.04 0.09 0.08 0.02 0.01 0.00 0.01 0.01
0.04 0.06 0.07 0.05 0.02 0.03 0.16 0.25 0.27 0.39 0.49 0.76 1.43 1.72 1.42 0.62 0.16 0.42 1.20 1.22 1.00 0.57 0.29 0.29 0.05 0.20 0.29 0.20 0.33 0.29 0.38 0.18 0.13 0.05 0.08 0.13 0.02 0.00 0.01 0.01 0.00 0.00 0.00 0.01 0.05 0.12 0.11 0.09 0.06 0.02 0.00 0.00 0.01 0.02
0.11 0.10 0.03 0.03 0.08 0.17 0.32 0.32 0.38 0.63 0.70 0.92 1.00 0.66 0.40 0.19 0.31 0.54 0.68 0.49 0.31 0.28 0.06 0.11 0.06 0.08 0.13 0.22 0.20 0.16 0.19 0.16 0.14 0.06 0.05 0.03 0.01 0.04 0.06 0.06 0.01 0.00 0.00 0.01 0.01 0.03 0.02 0.01 0.01 0.02 0.02 0.00 0.01 0.03
0.11 0.04 0.05 0.15 0.15 0.16 0.27 0.35 0.41 0.62 0.43 0.35 0.50 0.84 0.96 0.79 0.71 0.50 0.33 0.14 0.06 0.05 0.02 0.04 0.04 0.09 0.20 0.23 0.32 0.15 0.24 0.19 0.14 0.19 0.14 0.04 0.03 0.07 0.10 0.07 0.01 0.01 0.01 0.00 0.02 0.03 0.02 0.03 0.03 0.04 0.03 0.01 0.01 0.03
0.04 0.02 0.06 0.10 0.07 0.15 0.19 0.29 0.52 0.62 0.65 0.78 0.73 0.75 0.55 0.37 0.33 0.23 0.11 0.04 0.02 0.03 0.03 0.04 0.06 0.10 0.17 0.31 0.38 0.36 0.20 0.17 0.23 0.50 0.18 0.03 0.12 0.40 0.26 0.10 0.05 0.04 0.04 0.04 0.05 0.01 0.00 0.00 0.02 0.03 0.03 0.02 0.02 0.02
0.00 0.00 0.02 0.05 0.07 0.14 0.18 0.34 0.73 0.99 0.83 0.53 0.35 0.30 0.18 0.17 0.04 0.04 0.03 0.01 0.01 0.00 0.02 0.04 0.05 0.10 0.14 0.16 0.34 0.29 0.13 0.13 0.15 0.11 0.04 0.03 0.03 0.03 0.00 0.00 0.00 0.02 0.05 0.08 0.02 0.00 0.00 0.01 0.00 0.01 0.01 0.01 0.01 0.01
0.00 0.00 0.01 0.03 0.04 0.07 0.16 0.43 0.79 0.72 0.64 0.57 0.31 0.18 0.05 0.10 0.09 0.06 0.08 0.11 0.10 0.17 0.34 0.40 0.22 0.16 0.18 0.15 0.09 0.18 0.17 0.12 0.10 0.16 0.10 0.08 0.08 0.05 0.00 0.00 0.01 0.02 0.03 0.08 0.02 0.01 0.01 0.01 0.01 0.02 0.01 0.00 0.00 0.01
0.00 0.03 0.03 0.01 0.03 0.11 0.24 0.40 0.69 0.64 0.66 0.31 0.22 0.19 0.19 0.15 0.07 0.03 0.05 0.13 0.15 0.29 0.61 0.57 0.31 0.18 0.17 0.09 0.07 0.02 0.06 0.09 0.13 0.07 0.02 0.01 0.01 0.00 0.01 0.01 0.03 0.06 0.11 0.09 0.06 0.07 0.07 0.07 0.05 0.04 0.03 0.02 0.02 0.03
0.03 0.13 0.02 0.03 0.09 0.25 0.27 0.32 0.38 0.47 0.31 0.24 0.18 0.13 0.08 0.09 0.07 0.06 0.05 0.04 0.11 0.31 0.30 0.19 0.14 0.11 0.09 0.07 0.03 0.04 0.04 0.03 0.02 0.03 0.02 0.00 0.01 0.01 0.03 0.03 0.04 0.09 0.17 0.16 0.12 0.14 0.14 0.12 0.11 0.08 0.07 0.06 0.05 0.04
0.25 0.08 0.00 0.01 0.08 0.19 0.30 0.22 0.29 0.17 0.10 0.05 0.09 0.11 0.14 0.22 0.19 0.16 0.10 0.02 0.06 0.17 0.36 0.31 0.13 0.10 0.07 0.08 0.10 0.06 0.03 0.02 0.02 0.01 0.01 0.01 0.03 0.04 0.06 0.06 0.07 0.08 0.12 0.19 0.14 0.14 0.15 0.11 0.07 0.06 0.06 0.04 0.02 0.02
0.06 0.00 0.00 0.00 0.13 0.27 0.23 0.12 0.11 0.16 0.09 0.09 0.12 0.09 0.10 0.19 0.29 0.22 0.14 0.04 0.05 0.03 0.08 0.13 0.17 0.09 0.05 0.03 0.03 0.02 0.02 0.01 0.01 0.02 0.02 0.03 0.04 0.06 0.08 0.08 0.10 0.10 0.09 0.15 0.17 0.17 0.17 0.12 0.07 0.07 0.06 0.05 0.05 0.03
0.00 0.00 0.00 0.00 0.04 0.24 0.20 0.05 0.02 0.05 0.08 0.09 0.10 0.10 0.08 0.12 0.16 0.20 0.13 0.13 0.09 0.14 0.08 0.05 0.05 0.05 0.05 0.05 0.04 0.03 0.02 0.01 0.01 0.02 0.05 0.06 0.05 0.06 0.09 0.10 0.09 0.11 0.07 0.11 0.14 0.14 0.14 0.16 0.15 0.09 0.07 0.05 0.02 0.00
0.00 0.00 0.00 0.00 0.01 0.05 0.06 0.02 0.02 0.01 0.02 0.05 0.05 0.05 0.09 0.09 0.11 0.11 0.08 0.06 0.10 0.11 0.06 0.05 0.06 0.06 0.05 0.04 0.02 0.02 0.02 0.02 0.03 0.04 0.04 0.05 0.09 0.08 0.10 0.11 0.10 0.06 0.02 0.04 0.07 0.09 0.08 0.14 0.20 0.18 0.08 0.01 0.00 0.00
0.01 0.00 0.00 0.00 0.02 0.06 0.05 0.00 0.01 0.01 0.02 0.02 0.02 0.04 0.06 0.08 0.05 0.01 0.01 0.02 0.04 0.06 0.05 0.06 0.05 0.06 0.04 0.02 0.02 0.02 0.04 0.04 0.03 0.04 0.06 0.05 0.05 0.03 0.02 0.04 0.03 0.02 0.01 0.01 0.02 0.03 0.05 0.10 0.14 0.15 0.09 0.01 0.00 0.00
0.00 0.00 0.01 0.04 0.10 0.04 0.01 0.00 0.01 0.00 0.01 0.01 0.02 0.05 0.04 0.02 0.00 0.00 0.01 0.02 0.04 0.08 0.06 0.03 0.03 0.03 0.03 0.03 0.01 0.01 0.03 0.05 0.07 0.10 0.11 0.07 0.03 0.01 0.00 0.00 0.00 0.00 0.01 0.01 0.01 0.01 0.01 0.02 0.02 0.02 0.01 0.00 0.00 0.00
0.00 0.00 0.01 0.02 0.04 0.03 0.02 0.01 0.01 0.01 0.02 0.01 0.02 0.01 0.01 0.00 0.00 0.02 0.03 0.02 0.05 0.04 0.02 0.02 0.03 0.03 0.04 0.02 0.02 0.02 0.04 0.03 0.05 0.09 0.08 0.05 0.04 0.03 0.01 0.01 0.01 0.01 0.00 0.00 0.00 0.00 0.00 0.00 0.00 0.00 0.01 0.01 0.01 0.01
0.01 0.01 0.02 0.02 0.01 0.01 0.01 0.00 0.00 0.01 0.01 0.00 0.00 0.00 0.00 0.00 0.00 0.01 0.01 0.02 0.03 0.03 0.02 0.02 0.03 0.04 0.03 0.03 0.04 0.04 0.03 0.03 0.04 0.04 0.06 0.04 0.03 0.03 0.02 0.02 0.01 0.01 0.02 0.01 0.01 0.01 0.01 0.01 0.01 0.01 0.01 0.01 0.02 0.02
0.00 0.00 0.01 0.01 0.02 0.01 0.01 0.01 0.01 0.01 0.01 0.00 0.00 0.00 0.00 0.00 0.00 0.00 0.02 0.05 0.05 0.04 0.04 0.04 0.04 0.05 0.04 0.02 0.02 0.02 0.04 0.04 0.03 0.03 0.04 0.02 0.02 0.02 0.02 0.01 0.02 0.02 0.01 0.00 0.02 0.01 0.02 0.02 0.01 0.01 0.01 0.02 0.02 0.02
0.00 0.00 0.01 0.01 0.01 0.00 0.01 0.00 0.01 0.01 0.01 0.01 0.00 0.00 0.00 0.01 0.00 0.01 0.05 0.06 0.05 0.05 0.05 0.05 0.05 0.05 0.04 0.03 0.03 0.03 0.04 0.04 0.03 0.02 0.03 0.01 0.00 0.00 0.00 0.01 0.01 0.03 0.01 0.00 0.01 0.03 0.04 0.03 0.02 0.01 0.01 0.02 0.02 0.02
0.01 0.01 0.01 0.02 0.00 0.01 0.01 0.01 0.01 0.01 0.01 0.01 0.04 0.02 0.01 0.00 0.01 0.03 0.04 0.05 0.06 0.05 0.05 0.03 0.03 0.03 0.03 0.04 0.03 0.02 0.02 0.03 0.04 0.03 0.02 0.02 0.01 0.01 0.01 0.01 0.01 0.00 0.00 0.00 0.01 0.01 0.02 0.04 0.02 0.02 0.02 0.03 0.04 0.04
0.05 0.03 0.01 0.01 0.01 0.01 0.01 0.02 0.03 0.02 0.02 0.01 0.03 0.02 0.02 0.01 0.03 0.04 0.02 0.03 0.03 0.04 0.05 0.04 0.04 0.03 0.04 0.03 0.02 0.01 0.02 0.03 0.04 0.04 0.06 0.06 0.06 0.04 0.03 0.03 0.03 0.03 0.02 0.01 0.01 0.01 0.01 0.02 0.04 0.06 0.06 0.07 0.10 0.10
0.04 0.02 0.02 0.02 0.01 0.01 0.03 0.02 0.04 0.03 0.02 0.01 0.01 0.00 0.01 0.02 0.03 0.03 0.04 0.05 0.05 0.07 0.07 0.05 0.05 0.06 0.06 0.04 0.03 0.03 0.03 0.03 0.04 0.04 0.03 0.03 0.03 0.03 0.05 0.05 0.06 0.07 0.07 0.06 0.06 0.06 0.06 0.07 0.08 0.09 0.09 0.11 0.13 0.14
0.02 0.03 0.03 0.02 0.03 0.03 0.03 0.04 0.03 0.03 0.02 0.01 0.01 0.01 0.01 0.02 0.03 0.02 0.03 0.03 0.04 0.04 0.05 0.05 0.05 0.05 0.04 0.03 0.03 0.04 0.04 0.02 0.03 0.03 0.03 0.04 0.05 0.06 0.06 0.05 0.06 0.07 0.09 0.08 0.09 0.08 0.08 0.07 0.07 0.07 0.08 0.08 0.09 0.10
0.02 0.04 0.05 0.05 0.07 0.06 0.05 0.06 0.05 0.04 0.03 0.02 0.02 0.02 0.02 0.02 0.02 0.02 0.02 0.02 0.04 0.05 0.06 0.05 0.04 0.04 0.04 0.05 0.04 0.03 0.03 0.03 0.03 0.03 0.03 0.03 0.04 0.05 0.06 0.04 0.04 0.06 0.07 0.08 0.09 0.11 0.12 0.12 0.13 0.13 0.12 0.11 0.11 0.11
0.02 0.02 0.03 0.05 0.07 0.06 0.05 0.06 0.05 0.06 0.05 0.04 0.04 0.03 0.03 0.04 0.05 0.05 0.02 0.03 0.06 0.06 0.05 0.06 0.06 0.06 0.07 0.07 0.06 0.05 0.05 0.05 0.04 0.03 0.02 0.02 0.03 0.03 0.03 0.03 0.03 0.04 0.04 0.06 0.07 0.08 0.09 0.09 0.11 0.12 0.13 0.14 0.14 0.14